Location: Unspecified
(0.0000°N, 0.0000°E)
Time: 10:25:14
(UTC+02:00)

ISS - All Passes

Search period start: 22 May 2015 00:00
Search period end: 01 June 2015 00:00
Orbit: 399 x 404 km, 51.6° (Epoch: 21 May)

Date Brightness Start Highest point End Pass type
(mag) Time Alt. Az. Time Alt. Az. Time Alt. Az.
22 May - 00:03:58 10° SSW 00:07:05 45° SE 00:10:12 10° NE night (unlit)
22 May - 11:37:41 10° N 11:40:28 26° NE 11:43:18 10° ESE daylight
22 May - 23:11:50 10° SSE 23:13:54 16° SE 23:16:04 10° E night (unlit)
23 May - 00:48:21 10° W 00:50:13 14° NW 00:51:59 10° NNW night (unlit)
23 May - 10:47:00 10° NE 10:47:14 10° NE 10:47:40 10° ENE daylight
23 May - 12:20:53 10° WNW 12:23:34 23° SW 12:26:13 10° S daylight
23 May - 23:53:58 10° SW 23:57:00 38° NW 00:00:02 10° NNE night (unlit)
24 May - 11:27:08 10° NW 11:30:22 72° SW 11:33:37 10° SSE daylight
24 May - 23:00:38 10° SSW 23:03:49 62° SE 23:07:01 10° NE night (unlit)
25 May - 10:34:12 10° NNW 10:37:10 34° NE 10:40:11 10° ESE daylight
25 May - 22:08:07 10° S 22:10:35 20° SE 22:13:06 10° ENE night (unlit)
25 May - 23:45:46 10° WNW 23:46:54 11° NW 23:47:51 10° NW night (unlit)
26 May - 09:42:23 10° NNE 09:43:52 13° NE 09:45:31 10° E daylight
26 May - 11:17:48 10° W 11:20:11 18° SW 11:22:30 10° S daylight
26 May - 22:50:41 10° WSW 22:53:34 29° NW 22:56:26 10° N night (unlit)
27 May - 10:23:42 10° NW 10:26:53 53° SW 10:30:04 10° SSE daylight
27 May - 21:57:04 10° SSW 22:00:18 83° ESE 22:03:31 10° NE night (unlit)
28 May - 09:30:29 10° NNW 09:33:35 44° NE 09:36:44 10° SE daylight
28 May - 21:04:14 10° S 21:06:58 26° SE 21:09:45 10° ENE visible
29 May - 08:38:11 10° NNE 08:40:13 16° NE 08:42:23 10° E daylight
29 May - 10:14:33 10° W 10:16:32 15° SW 10:18:24 10° SSW daylight
29 May - 21:47:11 10° WSW 21:49:51 23° NW 21:52:29 10° N visible
30 May - 09:20:02 10° NW 09:23:07 40° SW 09:26:12 10° SSE daylight
30 May - 20:53:15 10° SW 20:56:29 74° NW 20:59:42 10° NNE visible
31 May - 08:26:33 10° NNW 08:29:44 59° NE 08:32:57 10° SE daylight
31 May - 20:00:09 10° SSW 20:03:05 32° SE 20:06:02 10° ENE daylight
